Other Surface Observations
Issued by NWS

Current Version | Previous Version | Text Only | Print | Product List | Glossary On
Versions: 1 2 3 4 5 6 7 8 9 10 11 12 13 14 15 16 17 18 19 20 21 22 23 24 25 26 27 28 29 30 31 32 33 34 35 36 37 38 39 40 41 42 43 44 45 46 47 48 49 50
000
SXUS52 KTAE 151918
OSOTAE
OSOTAE
North Florida/South Alabama/Southwest Georgia Weather Roundup
National Weather Service Tallahassee Florida
200 PM EST FRI DEC 15 2017

Note: "fair" indicates few or no clouds below 12,000 feet with no
significant weather and/or obstructions to visibility.

!FLZ017-115-028-034-025-152000
...North Florida...

CITY           SKY/WX    TMP DP  RH WIND       PRES   REMARKS
TALLAHASSEE    CLOUDY    63  43  48 NW13      30.07F
APALACHICOLA   CLOUDY    69  42  37 NW10      30.07F
PERRY          CLOUDY    67  51  57 W6        30.07S
CROSS CITY     PTSUNNY   71  57  60 W9        30.10S
JACKSONVILLE   PTSUNNY   72  56  57 W10       30.01F
$$

!FLZ112-006-005-002-011-152000
...Florida Panhandle...

CITY           SKY/WX    TMP DP  RH WIND       PRES   REMARKS
MARIANNA       CLOUDY    53  40  61 NW9       30.11F
BONIFAY        NOT AVBL
PANAMA CITY NW CLOUDY    53  42  66 NW13      30.10F
TYNDALL AFB    CLOUDY    57  44  62 N9        30.09F
TYND DRONE APT CLOUDY    57  44  60 N8        30.09F
DE FUNIAK SPR  CLOUDY    48  37  63 N9        30.14F WCI  44
EGLIN AFB      MOSUNNY   51  37  57 N10       30.12F
DESTIN         CLOUDY    54  37  52 N14       30.13F
HURLBURT       PTSUNNY   52  38  60 N16       30.12S
CRESTVIEW      CLOUDY    49  33  54 N7G16     30.16F
PENSACOLA      CLOUDY    50  37  61 N16G22    30.15F WCI  44
$$

!ALZ063-066-152000
...South Alabama...

CITY           SKY/WX    TMP DP  RH WIND       PRES   REMARKS
DOTHAN         CLOUDY    50  37  61 NW15      30.14F WCI  45
OZARK CAIRNS   CLOUDY    49  33  55 NW14      30.12S WCI  43
FT RUCKER HELI CLOUDY    48  34  58 NW9       30.13S WCI  44
RUCKER HELI 3    N/A     47  32  56 N10       30.13R WCI  42
RUCKER HELI 2  PTSUNNY   48  35  59 N10       30.12S WCI  44
FLORALA APT    CLOUDY    48  33  56 N8        30.16F WCI  44
ANDALUSIA      CLOUDY    49  32  52 NW12      30.15F WCI  44
TROY           CLOUDY    46  28  49 NW13      30.16F WCI  40
EUFALA         FAIR      49  33  54 NW8       30.12F
MOBILE         CLOUDY    49  33  54 N13       30.20S WCI  44
$$

!GAZ120>161-152000
...Southwest and South Central Georgia...

CITY           SKY/WX    TMP DP  RH WIND       PRES   REMARKS
THOMASVILLE    PTSUNNY   55  43  62 CALM      30.09S
BAINBRIDGE     CLOUDY    55  46  71 NW7       30.09F
MOODY AFB      PTSUNNY   60  42  51 NW9       30.05R
VALDOSTA       CLOUDY    63  40  42 VRB5      30.06S
MOULTRIE       CLOUDY    54  43  66 W7        30.09R
BLAKELY        NOT AVBL
ALBANY         CLOUDY    54  38  54 NW12      30.11S
TIFTON         CLOUDY    53  42  66 W8        30.07R
FITZGERALD     CLOUDY    55  43  63 NW6       30.10R
CORDELE        FAIR      57  39  50 W8        30.09S
AMERICUS       FAIR      50  32  50 NW9G17    30.10S
HOMERVILLE     FAIR      63  37  39 NW8       30.04S
$$

!GMZ750-755-770-775-152000
...Coastal and Buoy Obs...

STATION/POSITION TIME  TEMP    WIND        PRES    VSBY  WAVE
                       AIR SEA DIR/SP/G                  HT/PER
                 (UTC) (F)     (DEG/KT/KT) (MB)    (MI)  (FT/S)
KEATON BEACH     1900   60     280/  3/  4 1017.8F
CEDAR KEY        1900   64     220/  3/  4 1018.5F
C TOWER          1900   62     330/ 10/ 11 1018.9F
APALACHICOLA BUO NOT AVBL
PANAMA CITY BUOY 1850   66 74  360/ 14/ 17 1018.2F         2/ 4
MOBILE BUOY      1900   59 70  360/ 17/ 21 1020.9
ORANGE BCH AL BU NOT AVBL
$$




USA.gov is the U.S. government's official web portal to all federal, state and local government web resources and services.